GW2624 Weather Reports


time (UTC)temp
F
wind
direction
speed
knots
gust
knots
rain 1hr
in
rain 24hr
in
rain mn
in
humidity
%
barometer
mb
20260903034905 66 148 0.0 2.6 0.00 0.00 0.00 49 1007.3
20260903033905 66 144 1.7 2.6 0.00 0.00 0.00 49 1007.2
20260903031904 67 145 0.9 2.6 0.00 0.00 0.00 49 1007.0
20260903024404 67 175 0.0 0.9 0.00 0.00 0.00 52 1006.5
20260903023405 68 175 0.0 1.7 0.00 0.00 0.00 49 1006.4
20260903022904 69 175 0.0 1.7 0.00 0.00 0.00 48 1006.5
20260903020405 73 175 0.0 0.0 0.00 0.00 0.00 38 1006.3
20260903015905 74 175 0.0 0.0 0.00 0.00 0.00 37 1006.2
20260903014405 76 175 0.0 0.0 0.00 0.00 0.00 33 1006.2
20260903013404 77 175 0.0 0.9 0.00 0.00 0.00 31 1006.2
20260903011404 79 192 0.9 5.2 0.00 0.00 0.00 27 1006.2
20260903010405 80 199 2.6 7.8 0.00 0.00 0.00 27 1006.1
20260903005904 80 214 2.6 7.8 0.00 0.00 0.00 27 1006.1
20260903002904 81 216 1.7 5.2 0.00 0.00 0.00 28 1006.1
20260903002405 80 218 1.7 5.2 0.00 0.00 0.00 28 1006.1
20260903001405 81 204 2.6 7.0 0.00 0.00 0.00 27 1006.2
20260903000905 82 200 2.6 7.0 0.00 0.00 0.00 26 1006.2
20260902234904 81 235 1.7 4.3 0.00 0.00 0.00 27 1006.2
20260902233404 81 169 0.9 5.2 0.00 0.00 0.00 28 1006.3
20260902232904 81 156 2.6 5.2 0.00 0.00 0.00 28 1006.3
20260902232404 81 202 1.7 5.2 0.00 0.00 0.00 28 1006.4
20260902230905 83 210 2.6 7.8 0.00 0.00 0.00 27 1006.5
20260902225904 82 177 1.7 7.8 0.00 0.00 0.00 27 1006.4
20260902224405 83 213 4.3 7.8 0.00 0.00 0.00 26 1006.5
20260902214404 84 226 4.3 13.0 0.00 0.00 0.00 26 1006.9
20260902213404 85 149 5.2 11.3 0.00 0.00 0.00 25 1007.0
20260902212904 84 176 2.6 10.4 0.00 0.00 0.00 26 1007.2
20260902212404 84 201 3.5 12.2 0.00 0.00 0.00 26 1007.3
20260902211904 83 180 4.3 12.2 0.00 0.00 0.00 26 1007.4
20260902203904 80 273 0.9 6.1 0.00 0.00 0.00 37 1008.1
20260902203405 80 221 2.6 6.1 0.00 0.00 0.00 33 1008.2
20260902202904 80 251 0.9 4.3 0.00 0.00 0.00 36 1008.3
20260902202404 80 285 1.7 4.3 0.00 0.00 0.00 34 1008.3
20260902201904 80 7 0.9 1.7 0.00 0.00 0.00 38 1008.4
20260902194905 81 207 2.6 7.8 0.00 0.00 0.00 33 1008.7
20260902193904 83 177 2.6 8.7 0.00 0.00 0.00 33 1008.8
20260902192404 82 184 1.7 7.8 0.00 0.00 0.00 32 1009.2
20260902190905 82 164 0.9 4.3 0.00 0.00 0.00 32 1009.1
20260902185904 81 253 1.7 2.6 0.00 0.00 0.00 34 1009.4
20260902184905 82 190 0.9 5.2 0.00 0.00 0.00 33 1009.6
20260902183904 82 289 1.7 6.1 0.00 0.00 0.00 34 1009.9
20260902183404 82 174 1.7 6.1 0.00 0.00 0.00 31 1010.0
20260902182404 82 234 0.9 2.6 0.00 0.00 0.00 33 1010.2
20260902181404 81 185 0.9 2.6 0.00 0.00 0.00 33 1010.5
20260902175904 80 167 1.7 2.6 0.00 0.00 0.00 31 1010.7
20260902171405 75 173 0.0 2.6 0.00 0.00 0.00 49 1010.7
20260902170904 75 227 0.9 2.6 0.00 0.00 0.00 54 1010.7
20260902164904 75 295 0.9 2.6 0.00 0.00 0.00 54 1010.8
20260902163904 75 197 1.7 5.2 0.00 0.00 0.00 54 1010.7
20260902162905 74 228 2.6 5.2 0.00 0.00 0.00 56 1010.7
20260902161904 73 213 1.7 2.6 0.00 0.00 0.00 57 1010.7
20260902160904 72 232 0.9 2.6 0.00 0.00 0.00 59 1010.8
20260902160404 72 244 0.9 2.6 0.00 0.00 0.00 61 1010.9
20260902153405 68 54 0.9 2.6 0.00 0.00 0.00 70 1011.1
20260902152904 67 198 0.9 2.6 0.00 0.00 0.00 72 1011.1
20260902152405 67 235 0.9 2.6 0.00 0.00 0.00 71 1011.1
20260902151404 66 298 0.9 2.6 0.00 0.00 0.00 73 1011.2
20260902150904 65 209 1.7 2.6 0.00 0.00 0.00 74 1011.2
20260902145904 64 277 0.9 2.6 0.00 0.00 0.00 77 1011.4
20260902145404 63 251 0.0 1.7 0.00 0.00 0.00 78 1011.4
20260902144904 63 251 0.9 1.7 0.00 0.00 0.00 80 1011.4
20260902143905 62 251 0.0 1.7 0.00 0.00 0.00 81 1011.4
20260902143404 61 251 0.9 1.7 0.00 0.00 0.00 82 1011.3
20260902142904 61 259 0.9 1.7 0.00 0.00 0.00 82 1011.3
20260902141905 60 306 0.0 1.7 0.00 0.00 0.00 84 1011.3
20260902141404 59 306 0.9 1.7 0.00 0.00 0.00 84 1011.3
20260902140404 58 271 0.0 1.7 0.00 0.00 0.00 85 1011.3
20260902135404 57 262 0.0 1.7 0.00 0.00 0.00 85 1011.4
20260902134904 56 148 0.0 0.9 0.00 0.00 0.00 85 1011.4
20260902133904 55 148 0.0 0.9 0.00 0.00 0.00 85 1011.2
20260902133404 55 0 0.0 0.9 0.00 0.00 0.00 86 1011.1
20260902132404 55 0 0.0 2.6 0.00 0.00 0.00 86 1010.8
20260902131904 55 0 1.7 2.6 0.00 0.00 0.00 86 1010.8
20260902130904 54 0 0.9 2.6 0.00 0.00 0.00 86 1010.6
20260902125904 54 0 0.0 2.6 0.00 0.00 0.00 86 1010.5
20260902124904 54 0 1.7 2.6 0.00 0.01 0.00 86 1010.5
20260902123404 55 0 0.0 0.0 0.00 0.01 0.00 85 1010.6
20260902122405 55 0 0.0 0.0 0.00 0.01 0.00 85 1010.6
20260902121404 55 0 0.0 0.0 0.00 0.01 0.00 85 1010.5
20260902120404 55 0 0.0 0.0 0.00 0.01 0.00 85 1010.4
20260902115405 56 0 0.0 0.0 0.00 0.01 0.00 85 1010.3
20260902114405 56 0 0.0 0.0 0.00 0.02 0.00 84 1010.2
20260902113904 56 0 0.0 0.0 0.00 0.02 0.00 84 1010.1
20260902104405 59 0 0.0 0.9 0.00 0.04 0.00 81 1009.9
20260902103904 59 0 0.0 0.9 0.00 0.04 0.00 81 1009.9
20260902102904 60 0 0.0 0.0 0.00 0.04 0.00 80 1010.1
20260902102404 60 0 0.0 0.0 0.00 0.04 0.00 79 1010.1
20260902100404 61 0 0.0 1.7 0.00 0.04 0.00 77 1010.1
20260902095404 61 215 0.9 1.7 0.00 0.04 0.00 76 1010.0
20260902093904 61 215 0.0 0.0 0.00 0.06 0.00 75 1009.8
20260902093404 61 215 0.0 0.0 0.00 0.06 0.00 76 1009.8
20260902092905 61 215 0.0 0.0 0.00 0.06 0.00 76 1009.8
20260902091905 61 215 0.0 0.0 0.00 0.06 0.00 76 1009.8
20260902091404 61 215 0.0 0.9 0.00 0.06 0.00 76 1009.9
20260902085905 62 215 0.0 1.7 0.00 0.06 0.00 76 1009.9
20260902084904 62 167 0.0 0.9 0.00 0.07 0.00 76 1009.9
20260902084405 62 167 0.0 0.9 0.00 0.14 0.00 76 1010.0
20260902083404 62 167 0.0 0.9 0.00 0.23 0.00 76 1010.0
20260902081904 63 167 0.9 2.6 0.00 0.29 0.00 76 1010.2
20260902080904 63 167 0.0 2.6 0.00 0.31 0.00 74 1010.2
20260902080404 64 167 0.0 0.0 0.00 0.31 0.00 73 1010.2
20260902075904 64 167 0.0 0.9 0.00 0.31 0.00 72 1010.3
20260902075404 64 167 0.0 2.6 0.00 0.31 0.00 72 1010.3
20260902074904 64 167 0.0 2.6 0.00 0.31 0.00 73 1010.3
20260902074404 64 171 0.9 1.7 0.00 0.31 0.00 73 1010.3
20260902071904 65 229 0.0 0.9 0.00 0.31 0.00 73 1010.1
20260902065904 65 229 0.0 0.0 0.00 0.31 0.00 71 1010.1
20260902065404 65 229 0.0 0.0 0.00 0.31 0.00 71 1010.1
20260902064404 65 229 0.0 0.0 0.00 0.31 0.00 70 1010.2
20260902063904 66 229 0.0 0.0 0.00 0.31 0.00 69 1010.2
20260902060905 67 219 0.9 2.6 0.00 0.31 0.00 67 1010.3
20260902055904 67 140 0.9 1.7 0.00 0.31 0.31 67 1010.4
20260902054404 67 140 0.0 2.6 0.00 0.31 0.31 67 1010.4
20260902052904 67 145 0.9 2.6 0.00 0.31 0.31 68 1010.5
20260902052404 67 145 0.0 0.9 0.00 0.31 0.31 68 1010.5
20260902051905 67 145 0.0 0.9 0.00 0.31 0.31 67 1010.5
20260902051404 67 145 0.0 0.9 0.00 0.31 0.31 66 1010.5
20260902050904 67 145 0.0 2.6 0.00 0.31 0.31 66 1010.6
20260902050404 67 145 0.0 2.6 0.00 0.31 0.31 65 1010.5
20260902044404 67 145 0.9 2.6 0.00 0.32 0.31 64 1010.4
20260902043904 67 145 1.7 2.6 0.00 0.32 0.31 64 1010.4
20260902043404 67 145 1.7 2.6 0.00 0.32 0.31 64 1010.5
20260902042904 67 142 1.7 2.6 0.00 0.32 0.31 64 1010.4
20260902041904 67 146 0.9 2.6 0.00 0.32 0.31 66 1010.4
20260902041404 67 146 1.7 2.6 0.00 0.32 0.31 66 1010.4